W4FY Weather Reports


Display with metric or nautical units.
time (UTC)temp
F
wind
direction
speed
MPH
gust
MPH
rain 1hr
in
rain 24hr
in
rain mn
in
humidity
%
barometer
mb
20260508204503 57 200 1.0 3.0 0.00 0.00 0.00 54 1021.0
20260508203603 56 205 1.0 4.0 0.00 0.00 0.00 54 1021.4
20260508202703 55 212 2.0 7.0 0.00 0.00 0.00 56 1021.8
20260508201803 56 203 3.0 6.0 0.00 0.00 0.00 50 1021.8
20260508200903 58 203 2.0 7.0 0.00 0.00 0.00 47 1021.8
20260508200218 58 220 2.0 7.0 0.00 0.00 0.00 51 1021.8
20260508195617 59 239 2.0 6.0 0.00 0.00 0.00 49 1022.2
20260508194503 58 234 2.0 6.0 0.00 0.00 0.00 45 1022.6
20260508193603 58 202 2.0 4.0 0.00 0.00 0.00 47 1022.6
20260508192703 59 216 2.0 6.0 0.00 0.00 0.00 46 1022.6
20260508191803 58 228 3.0 11.0 0.00 0.00 0.00 46 1022.6
20260508190903 58 209 2.0 11.0 0.00 0.00 0.00 43 1022.6
20260508190003 59 252 3.0 13.0 0.00 0.00 0.00 39 1022.6
20260508185403 59 191 3.0 13.0 0.00 0.00 0.00 43 1022.6
20260508184504 58 201 3.0 10.0 0.00 0.00 0.00 40 1022.6
20260508183603 58 175 2.0 4.0 0.00 0.00 0.00 43 1023.0
20260508182703 58 203 2.0 7.0 0.00 0.00 0.00 39 1022.6
20260508181803 57 203 3.0 9.0 0.00 0.00 0.00 40 1023.0
20260508180903 58 209 3.0 8.0 0.00 0.00 0.00 35 1023.0
20260508180003 57 214 2.0 6.0 0.00 0.00 0.00 43 1023.4
20260508175403 57 261 2.0 6.0 0.00 0.00 0.00 48 1023.4
20260508174503 56 174 3.0 8.0 0.00 0.00 0.00 52 1023.8
20260508173603 55 207 2.0 10.0 0.00 0.00 0.00 47 1023.4
20260508172703 54 207 3.0 9.0 0.00 0.00 0.00 47 1023.4
20260508172018 55 225 2.0 10.0 0.00 0.00 0.00 50 1023.8
20260508170903 54 211 1.0 3.0 0.00 0.00 0.00 51 1023.8
20260508170003 53 206 2.0 7.0 0.00 0.00 0.00 53 1023.8
20260508165403 52 186 2.0 7.0 0.00 0.00 0.00 47 1024.1
20260508164718 53 214 2.0 6.0 0.00 0.00 0.00 46 1023.8
20260508163817 53 217 2.0 4.0 0.00 0.00 0.00 49 1024.1
20260508162703 52 115 3.0 9.0 0.00 0.00 0.00 53 1024.1
20260508161803 52 191 2.0 4.0 0.00 0.00 0.00 46 1024.1
20260508160903 52 193 2.0 7.0 0.00 0.00 0.00 31 1024.1
20260508160003 51 183 2.0 7.0 0.00 0.00 0.00 35 1024.1
20260508155403 51 116 2.0 8.0 0.00 0.00 0.00 36 1024.5
20260508154503 52 130 3.0 9.0 0.00 0.00 0.00 33 1024.5
20260508153603 53 108 2.0 10.0 0.00 0.00 0.00 33 1024.5
20260508152703 54 109 2.0 6.0 0.00 0.00 0.00 34 1024.5
20260508151803 54 118 2.0 6.0 0.00 0.00 0.00 35 1024.5
20260508151117 54 117 2.0 7.0 0.00 0.00 0.00 36 1024.5
20260508150003 53 110 3.0 9.0 0.00 0.00 0.00 40 1024.5
20260508145403 56 124 2.0 7.0 0.00 0.00 0.00 40 1024.5
20260508144504 58 110 1.0 6.0 0.00 0.00 0.00 38 1024.1
20260508143818 56 110 2.0 7.0 0.00 0.00 0.00 38 1024.1
20260508142703 57 92 1.0 4.0 0.00 0.00 0.00 37 1024.1
20260508141803 58 114 1.0 4.0 0.00 0.00 0.00 44 1024.5
20260508140903 55 124 0.0 2.0 0.00 0.00 0.00 47 1024.5
20260508140218 55 125 1.0 3.0 0.00 0.00 0.00 46 1024.1
20260508135403 54 126 1.0 3.0 0.00 0.00 0.00 48 1024.1
20260508134503 53 109 2.0 4.0 0.00 0.00 0.00 36 1024.1
20260508133818 54 110 2.0 4.0 0.00 0.00 0.00 44 1024.1
20260508132703 55 111 2.0 6.0 0.00 0.00 0.00 42 1024.1
20260508131803 54 107 1.0 4.0 0.00 0.00 0.00 40 1024.1
20260508131118 54 103 1.0 4.0 0.00 0.00 0.00 32 1023.8
20260508130003 53 95 1.0 4.0 0.00 0.00 0.00 39 1023.8
20260508125403 53 103 1.0 4.0 0.00 0.00 0.00 39 1023.8
20260508124503 52 103 1.0 4.0 0.00 0.00 0.00 40 1023.8
20260508123603 51 99 1.0 4.0 0.00 0.00 0.00 49 1023.8
20260508122917 51 95 1.0 3.0 0.00 0.00 0.00 49 1023.4
20260508121804 50 95 0.0 2.0 0.00 0.00 0.00 54 1023.4
20260508120903 48 85 0.0 2.0 0.00 0.00 0.00 56 1023.4
20260508120217 48 89 0.0 2.0 0.00 0.00 0.00 58 1023.0
20260508115403 47 90 0.0 2.0 0.00 0.00 0.00 60 1023.0
20260508114503 47 40 0.0 1.0 0.00 0.00 0.00 61 1023.4
20260508113603 46 0 0.0 0.0 0.00 0.00 0.00 68 1023.0
20260508112703 46 39 0.0 2.0 0.00 0.01 0.00 68 1023.0
20260508111803 44 39 0.0 1.0 0.00 0.02 0.00 72 1022.6
20260508110903 42 39 0.0 1.0 0.00 0.04 0.00 74 1022.6
20260508110003 40 39 0.0 1.0 0.00 0.06 0.00 76 1022.6
20260508105403 39 40 0.0 6.0 0.00 0.06 0.00 77 1022.2
20260508104503 37 39 0.0 6.0 0.00 0.07 0.00 80 1022.2
20260508103603 36 38 0.0 1.0 0.00 0.07 0.00 82 1022.2
20260508102703 36 38 0.0 2.0 0.00 0.07 0.00 83 1022.2
20260508101803 36 38 0.0 1.0 0.00 0.07 0.00 84 1021.8
20260508101117 36 38 0.0 2.0 0.00 0.08 0.00 84 1021.8
20260508100004 36 38 0.0 2.0 0.00 0.09 0.00 85 1021.8
20260508095403 36 38 0.0 2.0 0.00 0.10 0.00 85 1021.4
20260508094503 36 38 1.0 2.0 0.00 0.10 0.00 85 1021.8
20260508093603 36 38 1.0 2.0 0.00 0.10 0.00 86 1021.4
20260508092703 36 38 1.0 3.0 0.00 0.10 0.00 86 1021.4
20260508091803 36 38 1.0 3.0 0.00 0.10 0.00 86 1021.4
20260508090903 36 38 1.0 2.0 0.00 0.10 0.00 87 1021.4
20260508090003 36 102 0.0 2.0 0.00 0.10 0.00 91 1021.4
20260508085403 36 120 0.0 2.0 0.00 0.10 0.00 92 1021.4
20260508084503 36 116 0.0 1.0 0.00 0.10 0.00 92 1021.4
20260508083603 36 111 0.0 3.0 0.00 0.10 0.00 94 1021.4
20260508082703 36 112 0.0 1.0 0.00 0.10 0.00 94 1021.4
20260508081803 36 101 1.0 4.0 0.00 0.10 0.00 93 1021.4
20260508080903 36 80 1.0 3.0 0.00 0.10 0.00 92 1021.4
20260508080003 36 27 1.0 3.0 0.00 0.10 0.00 93 1021.4
20260508075617 37 4 1.0 3.0 0.00 0.10 0.00 93 1021.4
20260508074718 37 24 1.0 3.0 0.00 0.10 0.00 93 1021.4
20260508073603 37 303 1.0 3.0 0.00 0.10 0.00 94 1021.4
20260508072703 37 307 1.0 4.0 0.00 0.10 0.00 95 1021.4
20260508071803 37 265 1.0 4.0 0.00 0.10 0.00 96 1021.4
20260508070903 37 278 1.0 4.0 0.00 0.10 0.00 97 1021.4
20260508070217 37 267 1.0 4.0 0.00 0.10 0.00 98 1021.4
20260508065617 38 329 1.0 4.0 0.00 0.10 0.00 98 1021.4
20260508064503 38 301 0.0 3.0 0.00 0.10 0.00 98 1021.4
20260508063603 38 299 0.0 2.0 0.00 0.10 0.00 98 1021.4
20260508062703 38 334 1.0 2.0 0.00 0.10 0.00 98 1021.4
20260508061803 39 331 1.0 3.0 0.00 0.10 0.00 98 1021.4
20260508060903 39 294 1.0 3.0 0.00 0.10 0.00 98 1021.8
20260508060004 38 321 1.0 7.0 0.00 0.10 0.00 97 1021.8
20260508055403 39 61 1.0 7.0 0.00 0.10 0.00 96 1021.8
20260508054503 39 350 1.0 8.0 0.00 0.10 0.00 95 1021.8
20260508053603 39 357 1.0 6.0 0.00 0.10 0.00 95 1022.2
20260508052703 39 325 2.0 7.0 0.00 0.10 0.00 94 1021.8
20260508051803 39 339 1.0 3.0 0.00 0.10 0.00 94 1022.2
20260508050903 39 337 1.0 6.0 0.00 0.10 0.00 94 1022.2
20260508050003 39 318 1.0 7.0 0.00 0.10 0.00 94 1022.2
20260508045403 39 307 2.0 7.0 0.00 0.10 0.00 95 1021.8
20260508044503 39 312 1.0 6.0 0.00 0.10 0.00 95 1021.8
20260508043603 40 316 2.0 9.0 0.00 0.10 0.00 95 1021.8
20260508042703 40 321 1.0 6.0 0.00 0.10 0.00 97 1021.8
20260508042017 40 325 1.0 6.0 0.00 0.10 0.00 97 1021.8
20260508040903 40 319 0.0 7.0 0.00 0.10 0.00 97 1021.8
20260508040005 40 312 1.0 3.0 0.00 0.10 0.00 97 1021.8
20260508035403 40 278 1.0 3.0 0.00 0.11 0.10 98 1021.8
20260508034503 40 142 1.0 6.0 0.00 0.11 0.10 98 1021.8
20260508033603 40 136 1.0 4.0 0.00 0.11 0.10 97 1021.8
20260508032703 40 69 1.0 7.0 0.00 0.11 0.10 97 1021.8
20260508031803 40 23 1.0 4.0 0.00 0.11 0.10 97 1021.8
20260508030903 40 46 1.0 6.0 0.00 0.11 0.10 97 1021.8
20260508030004 40 346 1.0 8.0 0.00 0.11 0.10 98 1021.8
20260508025403 40 331 1.0 6.0 0.00 0.11 0.10 98 1021.8
20260508024716 40 314 2.0 6.0 0.00 0.11 0.10 98 1021.4
20260508023603 40 5 1.0 6.0 0.00 0.11 0.10 98 1021.8
20260508022703 40 334 1.0 4.0 0.00 0.11 0.10 98 1021.0
20260508021803 40 8 1.0 6.0 0.00 0.11 0.10 99 1021.0
20260508020903 40 98 1.0 4.0 0.00 0.11 0.10 99 1021.0
20260508020003 40 115 1.0 4.0 0.00 0.11 0.10 98 1021.0
20260508015403 40 135 1.0 8.0 0.00 0.11 0.10 98 1021.0
20260508014718 40 115 1.0 4.0 0.00 0.12 0.10 98 1021.0
20260508013603 40 97 1.0 4.0 0.00 0.13 0.10 97 1020.6
20260508012703 40 92 1.0 6.0 0.00 0.14 0.10 98 1020.6
20260508011804 40 130 2.0 6.0 0.00 0.16 0.10 97 1020.6
20260508010903 40 275 1.0 6.0 0.00 0.17 0.10 97 1020.2
20260508010003 41 339 1.0 4.0 0.00 0.18 0.10 95 1020.2
20260508005403 41 315 2.0 6.0 0.00 0.19 0.10 96 1020.2
20260508004718 41 319 1.0 6.0 0.00 0.20 0.10 95 1019.8
20260508003603 41 25 1.0 4.0 0.00 0.21 0.10 95 1019.8
20260508002703 41 328 1.0 6.0 0.00 0.22 0.10 95 1020.2
20260508001803 42 320 2.0 7.0 0.00 0.22 0.10 95 1019.8
20260508001117 42 313 1.0 4.0 0.00 0.23 0.10 95 1019.8
20260508000003 42 316 1.0 6.0 0.00 0.23 0.10 93 1019.8
20260507235403 42 323 1.0 4.0 0.00 0.23 0.10 93 1019.8
20260507234503 43 329 1.0 6.0 0.00 0.23 0.10 93 1020.2
20260507233603 43 338 1.0 8.0 0.00 0.23 0.10 93 1019.8
20260507232703 43 299 1.0 8.0 0.00 0.23 0.10 92 1019.8
20260507231803 44 304 2.0 7.0 0.00 0.24 0.10 91 1019.5
20260507230903 44 198 1.0 6.0 0.00 0.27 0.10 91 1019.8
20260507230003 44 246 2.0 8.0 0.00 0.29 0.10 92 1019.8
20260507225403 44 289 2.0 8.0 0.00 0.30 0.10 91 1019.8
20260507224504 45 318 2.0 9.0 0.00 0.31 0.10 92 1019.8
20260507223603 45 306 2.0 6.0 0.00 0.31 0.10 92 1019.8
20260507222918 45 314 2.0 6.0 0.00 0.32 0.10 92 1019.8
20260507221803 44 304 2.0 7.0 0.00 0.33 0.10 96 1019.8
20260507220903 44 313 3.0 11.0 0.00 0.36 0.10 97 1019.5
20260507220003 43 309 2.0 8.0 0.00 0.37 0.10 95 1019.5
20260507215403 44 307 2.0 8.0 0.00 0.37 0.10 94 1019.5
20260507214503 44 305 2.0 8.0 0.00 0.37 0.10 94 1019.5
20260507213603 45 327 2.0 7.0 0.00 0.37 0.10 92 1019.1
20260507212703 46 327 1.0 6.0 0.00 0.38 0.10 93 1019.1
20260507211803 46 312 1.0 6.0 0.00 0.40 0.10 93 1019.1
20260507210903 46 313 2.0 8.0 0.00 0.41 0.10 93 1019.1
20260507210004 46 313 3.0 9.0 0.00 0.42 0.10 94 1018.7
20260507205403 46 308 3.0 9.0 0.00 0.42 0.10 92 1018.7